Weather History for Kingston, Jamaica

Change the Weather History Date:

Wednesday, July 10, 2013

  Actual Average Record
Temperature  
Mean Temperature 86 °F -  
Max Temperature 95 °F 88 °F 96 °F (2007)
Min Temperature 77 °F 79 °F 77 °F (2011)
Cooling Degree Days 21    
Growing Degree Days 36 (Base 50)    
Moisture  
Dew Point 75 °F    
Average Humidity 71    
Maximum Humidity 83    
Minimum Humidity 56    
Precipitation  
Precipitation 0.01 in - - ()
Sea Level Pressure  
Sea Level Pressure 29.93 in    
Wind  
Wind Speed 9 mph ()    
Max Wind Speed 26 mph    
Max Gust Speed -    
Visibility 7.8 miles    
Events Thunderstorm    
Averages and records for this station are not official NWS values.
T = Trace of Precipitation, MM = Missing Value Source: Averaged Metar Reports

Daily Weather History Graph

Daily Weather History Graph

Search for Another Location

Airport:

Trip Planner

Search our weather history database for the weather conditions in past years. The results will help you decide how hot, cold, wet, or windy it might be!

Date:

Astronomy

Jul. 10, 2013 Rise Set
Actual Time 5:38 AM EST 6:46 PM EST
Civil Twilight 5:14 AM EST 7:10 PM EST
Nautical Twilight 4:46 AM EST 7:38 PM EST
Astronomical Twilight 4:17 AM EST 8:07 PM EST
Moon 7:32 AM EST (7/10) 8:24 PM EST (7/10)
Length of Visible Light 13h 56m
Length of Day
13h 08m
Waxing Crescent, 5% of the Moon is Illuminated
Jul 10
Waxing Crescent
Jul 15
First Quarter
Jul 22
Full
Jul 29
Last Quarter
Aug 6
New

Hourly Weather History & Observations

Time (EST) Temp. Heat Index Dew Point Humidity Pressure Visibility Wind Dir Wind Speed Gust Speed Precip Events Conditions
12:00 AM 80.6 °F 85.4 °F 73.4 °F 79% 29.98 in 6.2 mi NNW 4.6 mph - N/A Thunderstorm Partly Cloudy
1:00 AM 82 °F - 74 °F 72% 29.99 in 12 mi NNW 8.1 mph - -   Haze
1:00 AM 82.4 °F 89.5 °F 75.2 °F 79% 29.98 in 6.2 mi NNW 8.1 mph - N/A   Partly Cloudy
2:00 AM 80.6 °F 85.4 °F 73.4 °F 79% 29.95 in 6.2 mi NW 10.4 mph - N/A Thunderstorm Partly Cloudy
3:00 AM 82.4 °F 86.3 °F 69.8 °F 66% 29.95 in 6.2 mi North 9.2 mph - N/A Thunderstorm Partly Cloudy
4:00 AM 81 °F - 72 °F 68% 29.95 in 12 mi NNW 6.9 mph - -   Haze
4:00 AM 80.6 °F 84.6 °F 71.6 °F 74% 29.95 in 6.2 mi NNW 6.9 mph - N/A   Partly Cloudy
5:00 AM 80.6 °F 85.4 °F 73.4 °F 79% 29.98 in 6.2 mi NW 6.9 mph - N/A Thunderstorm Scattered Clouds
6:00 AM 78.8 °F - 73.4 °F 83% 29.95 in 6.2 mi NW 4.6 mph - N/A   Partly Cloudy
7:00 AM 82 °F - 74 °F 70% 29.95 in 14 mi NNW 9.2 mph - -   Haze
7:00 AM 82.4 °F 88.2 °F 73.4 °F 74% 29.95 in 6.2 mi NNW 9.2 mph - N/A   Scattered Clouds
8:00 AM 82.4 °F 88.2 °F 73.4 °F 74% 29.95 in 6.2 mi NNW 4.6 mph - N/A   Partly Cloudy
9:00 AM 84.2 °F 90.9 °F 73.4 °F 70% 29.98 in 6.2 mi NNW 6.9 mph - N/A   Partly Cloudy
10:00 AM 87 °F - 75 °F 59% 29.96 in 12 mi SW 6.9 mph - -   Haze
10:00 AM 87.8 °F 95.6 °F 73.4 °F 62% 29.98 in 6.2 mi ESE 5.8 mph - N/A   Partly Cloudy
11:00 AM 86.0 °F 96.9 °F 77.0 °F 74% 29.95 in 6.2 mi SE 23.0 mph - N/A   Partly Cloudy
12:00 PM 87.8 °F 97.6 °F 75.2 °F 66% 29.92 in 6.2 mi SE 17.3 mph - N/A   Partly Cloudy
1:00 PM 89 °F - 78 °F 64% 29.93 in 14 mi SSW 8.1 mph - -   Haze
1:00 PM 89.6 °F 99.8 °F 75.2 °F 62% 29.92 in 6.2 mi South 11.5 mph - N/A   Partly Cloudy
2:00 PM 87.8 °F 99.7 °F 77.0 °F 70% 29.89 in 6.2 mi SE 26.5 mph - N/A   Partly Cloudy
3:00 PM 87.8 °F 99.7 °F 77.0 °F 70% 29.86 in 6.2 mi SE 26.5 mph - N/A   Partly Cloudy
4:00 PM 90 °F - 76 °F 56% 29.87 in 14 mi North 17.3 mph - -   Haze
4:00 PM 89.6 °F 102.2 °F 77.0 °F 66% 29.86 in 6.2 mi North 17.3 mph - N/A   Partly Cloudy
5:00 PM 89.6 °F 102.2 °F 77.0 °F 66% 29.86 in 6.2 mi ENE 10.4 mph - N/A   Partly Cloudy
6:00 PM 87.8 °F 102.5 °F 78.8 °F 75% 29.86 in 6.2 mi ESE 13.8 mph - N/A   Partly Cloudy
7:00 PM 87 °F - 79 °F 72% 29.88 in 12 mi SSE 6.9 mph - -   Haze
7:00 PM 87.8 °F 102.5 °F 78.8 °F 75% 29.86 in 6.2 mi SSE 6.9 mph - N/A   Partly Cloudy
8:00 PM 86.0 °F 99.3 °F 78.8 °F 79% 29.86 in 6.2 mi NNW 4.6 mph - N/A   Partly Cloudy
9:00 PM 84.2 °F 92.3 °F 75.2 °F 74% 29.92 in 6.2 mi WSW 6.9 mph - N/A   Partly Cloudy
10:00 PM 85 °F - 75 °F 64% 29.94 in 12 mi SE 8.1 mph - -   Scattered Clouds
10:00 PM 84.2 °F 92.3 °F 75.2 °F 74% 29.92 in 6.2 mi SE 8.1 mph - N/A   Partly Cloudy
11:00 PM 84.2 °F 90.9 °F 73.4 °F 70% 29.92 in 6.2 mi ESE 15.0 mph - N/A Thunderstorm Partly Cloudy
11:24 PM 84.2 °F 90.9 °F 73.4 °F 70% 29.92 in 6.2 mi ESE 12.7 mph - N/A Thunderstorm Thunderstorm